www.pogodaiklimat.ru
ПОГОДА в Стерджен Бэй
Время
и дата
07:56 05.02
08:56 05.02
09:56 05.02
10:56 05.02
11:56 05.02
12:41 05.02
12:56 05.02
13:08 05.02
13:56 05.02
14:56 05.02
15:56 05.02
16:56 05.02
17:56 05.02
18:56 05.02
19:43 05.02
19:56 05.02
20:56 05.02
21:56 05.02
22:56 05.02
23:56 05.02
00:56 06.02
01:56 06.02
02:56 06.02
03:56 06.02
04:56 06.02
05:56 06.02
06:56 06.02
07:44 06.02
07:56 06.02
08:16 06.02
08:49 06.02
08:56 06.02
09:56 06.02
10:56 06.02
11:56 06.02
12:56 06.02
13:56 06.02
14:56 06.02
15:56 06.02
16:56 06.02
17:35 06.02
17:56 06.02
18:25 06.02
18:56 06.02
19:56 06.02
20:56 06.02
21:56 06.02
22:56 06.02
Ветер
(напр.,м/с)
Видим. Явления Облачность Т
(С)
Тd
(С)
f
(%)
Тe
(С)
Тes
(С)
Комфортность P
(гПа)
Po
(гПа)
Тmin
(С)
Tmax
(С)
R
(мм)
R24
(мм)
S
(см)
С 3 16 км ясно -6.1 -8.3 84 -12 -12 1009.7 982.5
С 4 16 км ясно -5.0 -8.9 74 -11 -11 1010.2 982.9
С 4 16 км 10/10 1290 м -4.4 -7.8 77 -11 -11 1011.0 983.8
С 4 16 км 10/10 1110 м -3.9 -6.7 81 -10 -10 1011.7 984.5
С 5 16 км 10/10 1110 м -2.8 -6.1 78 -9 -9 1011.7 984.5 -6.7 -2.8
С 4 16 км 10/10 660 м -2.0 -6.0 74 -8 -8 985.2
С 3 16 км 8/8 660 м -0.6 -5.6 69 -5 -4 1012.4 985.2
С 4 16 км 2/2 690 м -1.0 -6.0 69 -6 -4 985.2
С 5 16 км ясно +0.6 -6.1 61 -5 -2 1012.9 985.8
С 4 16 км 5/5 960 м -0.6 -5.0 72 -6 -5 1014.1 986.8
СВ 5
{8}
16 км 10/10 1020 м -1.7 -5.6 75 -8 -8 1015.4 988.1
С 5 16 км 10/10 1020 м -2.2 -6.1 75 -9 -9 1016.5 989.1
С 5 16 км 10/10 1080 м -3.3 -6.7 77 -10 -10 1018.2 990.8 -3.3 +0.6
С 6 16 км 2/2 1080 м -4.4 -7.2 81 -12 -12 1019.3 991.8
С 6 16 км 8/8 810 м -4.0 -7.0 80 -11 -11 992.7
С 6 16 км 10/10 810 м -3.9 -7.2 78 -11 -11 1020.6 993.1
СВ 4 16 км 10/10 750 м -3.9 -7.2 78 -10 -10 1021.0 993.4
СВ 3 16 км 10/10 690 м -4.4 -7.8 77 -10 -10 1021.8 994.1
С 2 16 км 10/10 690 м -4.4 -7.8 77 -8 -8 1022.5 995.1
С 3 16 км 10/10 690 м -4.4 -7.8 77 -10 -10 1023.1 995.7 -4.4 -3.3
СВ 3 16 км 10/10 630 м -5.0 -8.3 78 -10 -10 1022.9 995.4
В 2 16 км 10/10 630 м -5.0 -8.3 78 -9 -9 1023.2 995.7
В 2 16 км 10/10 630 м -5.0 -8.3 78 -9 -9 1023.9 996.4
штиль 0 16 км 10/10 630 м -5.6 -8.9 78 -6 -6 1024.0 996.4
В 2 16 км 10/10 570 м -6.1 -8.9 81 -10 -10 1024.0 996.4
В 2 16 км 10/10 570 м -7.2 -9.4 84 -12 -12 1024.6 996.7 -7.2 -4.4
В 2 16 км 5/5 510 м -6.7 -8.9 84 -11 -11 1024.9 997.0
В 2 16 км 8/8 510 м -7.0 -9.0 86 -11 -11 997.0
штиль 0 16 км 8/8 510 м -7.2 -9.4 84 -8 -8 1025.0 997.0
штиль 0 16 км 5/5 510 м -5.0 -8.0 79 -6 -5 997.0
ЮВ 2 16 км 8/8 510 м -4.0 -7.0 80 -8 -8 996.7
ЮВ 2 16 км 10/10 510 м -4.4 -6.7 84 -9 -9 1024.0 996.4
Ю 4 16 км 10/10 510 м -1.1 -5.0 75 -7 -7 1023.5 996.0
Ю 6 16 км 10/10 510 м -0.6 -4.4 75 -7 -7 1023.4 996.0
Ю 6 16 км 10/10 510 м 0.0 -3.9 75 -6 -6 1022.1 994.7 -7.8
Ю 6
{10}
16 км 10/10 450 м -0.6 -3.9 78 -7 -7 1021.2 993.7
Ю 8
{9}
16 км 10/10 390 м 0.0 -3.3 78 -7 -7 1019.2 991.8
Ю 7 16 км 10/10 390 м 0.0 -2.8 81 -7 -7 1018.2 991.1
Ю 7
{9}
16 км 10/10 390 м 0.0 -2.2 85 -7 -7 1017.5 990.1
Ю 6 16 км 10/10 330 м 0.0 -2.2 85 -7 -7 1016.4 989.1
ЮВ 8
{10}
16 км 5/5 450 м 0.0 -3.0 80 -7 -7 987.8
ЮВ 6
{10}
16 км 8/8 510 м 0.0 -2.8 81 -7 -7 1014.5 987.1 -0.6
ЮВ 7
{10}
16 км 2/2 510 м 0.0 -3.0 80 -7 -7 986.5
ЮВ 7
{10}
16 км ясно 0.0 -3.3 78 -7 -7 1013.0 985.8
Ю 8
{11}
16 км 5/0 3600 m
[Ac]
+0.6 -3.3 75 -7 -7 1014.1 986.8
Ю 8
{11}
16 км 10/0 3300 m
[Ac]
+1.1 -2.2 79 -6 -6 1010.5 983.5
Ю 11
{13}
16 км слабый дождь 8/0 2850 m
[Ac As]
+1.7 -1.7 78 -6 -6 1008.4 981.5
Ю 13
{16}
16 км 10/5 1950 m
[Ac]
+2.2 -0.6 82 -6 -6 1005.8 978.9
Местоположение метеостанции Door County Cherryland Airport: широта 44.8500 долгота -87.4167 высота над уровнем моря 221 м.
В архиве по умолчанию представлена погода в Стерджен Бэй за последние 1-2 суток. Обновление информации о фактической погоде в базе происходит ежечасно! Архивные данные за месяц целиком и за предыдущие месяцы Вы можете получить, выбрав интересующий диапазон дат из раскрывающегося списка и нажав кнопку "Ввод!".
Внимание! Архив погоды МЕТАР в базе сайта по станциям, не включенным в климатический монитор, хранится не более 60 дней. Нет смысла пытаться выбрать более раннюю дату.
*Определитесь, кто Вы:
Внимание! Время в таблицах - местное (без учета летнего времени). Для получения всемирного времени необходимо вычесть поправку, которая равна -6 ч.
Смотрите также архив погоды в соседних городах и на ближайших метеорологических станциях:
Партнеры нашего сайта:      
Пояснения к столбцам:
  • Ветер - указаны скорость ветра в м/с - средняя за 10 мин, порывы в срок и между сроками (в фигурных скобках) и направление, откуда дует ветер: С - северный,
  • СВ - северо-восточный, В - восточный, ЮВ - юго-восточный, Ю - южный, ЮЗ - юго-западный, З - западный, СЗ - северо-западный.
  • Видимость - горизонтальная дальность видимости в метрах или километрах. При видимости от 1 до 10 км при отсутствии осадков обычно наблюдается дымка, при ухудшении видимости до 1 км и менее - туман. В сухую погоду видимость может ухудшаться дымом, пылью или мглою.
  • Явления - указаны атмосферные явления, наблюдавшиеся в срок или в последний час перед сроком; фигурными скобками обозначены явления, наблюдавшиеся между сроками (за 1-3 часа до срока); квадратными скобками обозначены град или гололедные отложения с указанием их диаметра в мм.
  • Облачность - указаны через наклонную черту общая и нижняя облачность в баллах и высота нижней границы облаков в метрах; квадратными скобками обозначены формы облаков: Ci - перистые, Cs - перисто-слоистые, Cc - перисто-кучевые, Ac - высококучевые, As - высокослоистые, Sc - слоисто-кучевые, Ns - слоисто-дождевые, Cu - кучевые, Cb - кучево-дождевые. Подробнее классификацию облаков см. в Атласе облаков (PDF).
  • T - Температура воздуха - температура, измеренная на высоте 2 м над землей.
  • Td - Температура точки росы - температура, при понижении до которой содержащийся в воздухе водяной пар достигнет насыщения.
  • f - Относительная влажность воздуха - влажноcть воздуха, измеренная на высоте 2 м над землей.
  • Te - Эффективная температура - температура, которую ощущает одетый по сезону человек в тени. Характеристика душности погоды. При расчете учитывается влияние влажности воздуха и скорости ветра на теплоощущения человека.
  • Tes - Эффективная температура на солнце - температура, которую ощущает человек, с поправкой на солнечный нагрев. Характеристика знойности погоды. Зависит от высоты солнца над горизонтом, облачности и скорости ветра. Ночью, в пасмурную погоду, а также при ветре 12 м/с и более поправка равна нулю.
  • P - Атмосферное давление - приведенное к уровню моря атмосферное давление.
  • Po - Атмосферное давление - измеренное на уровне метеостанции атмосферное давление.
  • Tmin - Минимальная температура - минимум температуры воздуха на высоте 2 м над землей.
  • Tmax - Максимальная температура - максимум температуры воздуха на высоте 2 м над землей.
  • R - Количество осадков - Количество выпавших осадков за период времени, мм. При наведении курсора мыши на число - период времени, за который выпало указанное количество осадков.
  • R24 - Количество осадков - Количество выпавших осадков за 24 часа, мм.
  • S - Снежный покров - Высота снежного покрова, см. При наведении курсора мыши на число - состояние снежного покрова и степень покрытия местности в баллах.